CW0454 Weather Reports


Display with metric or nautical units.
time (UTC)temp
F
wind
direction
speed
MPH
gust
MPH
rain 1hr
in
rain 24hr
in
rain mn
in
humidity
%
barometer
mb
20260506051359 72 126 4.0 19.0 0.00 0.00 0.00 60 1009.4
20260506050359 72 148 4.0 13.0 0.00 0.00 0.00 59 1009.5
20260506044419 72 96 3.0 13.0 0.00 0.00 0.00 59 1009.5
20260506043359 72 124 5.0 10.0 0.00 0.00 0.00 58 1009.4
20260506042359 72 143 4.0 16.0 0.00 0.00 0.00 57 1009.4
20260506041400 72 138 4.0 22.0 0.00 0.00 0.00 57 1009.4
20260506040359 72 142 5.0 16.0 0.00 0.00 0.00 57 1009.5
20260506035400 72 153 4.0 11.0 0.00 0.00 0.00 58 1009.4
20260506034359 72 122 5.0 14.0 0.00 0.00 0.00 57 1009.5
20260506033401 72 93 3.0 9.0 0.00 0.00 0.00 56 1009.4
20260506032359 72 120 5.0 14.0 0.00 0.00 0.00 56 1009.3
20260506031359 72 132 4.0 11.0 0.00 0.00 0.00 56 1009.3
20260506030359 71 126 5.0 15.0 0.00 0.00 0.00 57 1009.4
20260506025359 70 133 1.0 10.0 0.00 0.00 0.00 58 1009.3
20260506024359 69 121 2.0 8.0 0.00 0.00 0.00 58 1009.5
20260506023359 69 103 3.0 9.0 0.00 0.00 0.00 59 1009.6
20260506022400 68 94 2.0 6.0 0.00 0.00 0.00 60 1009.8
20260506021359 68 127 1.0 6.0 0.00 0.00 0.00 60 1009.6
20260506020359 69 101 2.0 7.0 0.00 0.00 0.00 58 1009.8
20260506015400 69 91 1.0 6.0 0.00 0.00 0.00 56 1009.4
20260506014420 70 87 2.0 7.0 0.00 0.00 0.00 55 1009.3
20260506013359 70 108 2.0 4.0 0.00 0.00 0.00 56 1009.2
20260506012400 70 100 1.0 4.0 0.00 0.00 0.00 55 1009.2
20260506011359 71 109 2.0 6.0 0.00 0.00 0.00 54 1009.0
20260506010400 72 95 2.0 7.0 0.00 0.00 0.00 52 1008.9
20260506005421 72 70 1.0 10.0 0.00 0.00 0.00 50 1008.7
20260506004359 72 100 1.0 4.0 0.00 0.00 0.00 51 1008.7
20260506003359 74 101 1.0 3.0 0.00 0.00 0.00 50 1008.5
20260506002400 75 67 1.0 4.0 0.00 0.00 0.00 47 1008.4
20260506001359 77 73 1.0 6.0 0.00 0.00 0.00 44 1008.4
20260506000423 78 94 2.0 7.0 0.00 0.00 0.00 38 1008.3
20260505235359 79 151 2.0 11.0 0.00 0.00 0.00 37 1008.2
20260505234401 79 287 1.0 11.0 0.00 0.00 0.00 36 1008.1
20260505233400 80 137 7.0 12.0 0.00 0.00 0.00 36 1008.1
20260505232359 80 146 4.0 10.0 0.00 0.00 0.00 35 1008.0
20260505231400 80 163 3.0 10.0 0.00 0.00 0.00 36 1008.1
20260505230400 80 120 4.0 9.0 0.00 0.00 0.00 35 1008.1
20260505225400 81 179 3.0 11.0 0.00 0.00 0.00 35 1008.1
20260505224400 81 169 4.0 10.0 0.00 0.00 0.00 34 1008.1
20260505223359 81 120 2.0 13.0 0.00 0.00 0.00 34 1008.1
20260505222400 81 135 5.0 13.0 0.00 0.00 0.00 35 1008.0
20260505221400 82 118 5.0 16.0 0.00 0.00 0.00 33 1008.0
20260505220400 83 226 4.0 14.0 0.00 0.00 0.00 33 1008.2
20260505215421 83 135 4.0 14.0 0.00 0.00 0.00 34 1008.1
20260505214421 84 161 5.0 12.0 0.00 0.00 0.00 33 1008.1
20260505213400 84 145 6.0 18.0 0.00 0.00 0.00 32 1008.0
20260505212421 84 138 8.0 18.0 0.00 0.00 0.00 32 1007.9
20260505211401 84 139 6.0 17.0 0.00 0.00 0.00 32 1007.8
20260505210400 85 185 6.0 14.0 0.00 0.00 0.00 33 1007.7
20260505205400 85 169 6.0 19.0 0.00 0.00 0.00 33 1007.8
20260505204400 85 136 5.0 17.0 0.00 0.00 0.00 32 1007.8
20260505203400 85 143 6.0 19.0 0.00 0.00 0.00 33 1007.9
20260505202400 85 143 7.0 20.0 0.00 0.00 0.00 32 1007.6
20260505201400 85 138 7.0 18.0 0.00 0.00 0.00 33 1007.9
20260505200401 86 125 5.0 19.0 0.00 0.00 0.00 34 1007.9
20260505195401 85 147 5.0 12.0 0.00 0.00 0.00 33 1008.0
20260505194421 85 158 6.0 21.0 0.00 0.00 0.00 34 1008.1
20260505193401 85 129 4.0 22.0 0.00 0.00 0.00 35 1008.3
20260505192400 85 145 4.0 15.0 0.00 0.00 0.00 34 1008.5
20260505191400 85 132 5.0 17.0 0.00 0.00 0.00 35 1008.7
20260505190400 85 117 6.0 19.0 0.00 0.00 0.00 35 1008.7
20260505185401 85 119 7.0 19.0 0.00 0.00 0.00 34 1009.0
20260505184401 86 161 8.0 18.0 0.00 0.00 0.00 34 1009.2
20260505183421 86 161 5.0 14.0 0.00 0.00 0.00 38 1009.1
20260505182401 85 148 5.0 16.0 0.00 0.00 0.00 35 1009.2
20260505181400 85 112 5.0 12.0 0.00 0.00 0.00 35 1009.5
20260505180422 85 162 6.0 10.0 0.00 0.00 0.00 37 1009.5
20260505175400 84 73 2.0 16.0 0.00 0.00 0.00 38 1009.6
20260505174401 84 141 4.0 12.0 0.00 0.00 0.00 38 1009.7
20260505173401 84 130 6.0 20.0 0.00 0.00 0.00 40 1009.8
20260505172401 84 132 3.0 14.0 0.00 0.00 0.00 44 1009.9
20260505171401 83 158 4.0 11.0 0.00 0.00 0.00 45 1009.9
20260505170400 84 119 3.0 10.0 0.00 0.00 0.00 48 1010.0
20260505165401 84 126 2.0 10.0 0.00 0.00 0.00 43 1010.0
20260505164401 83 140 5.0 10.0 0.00 0.00 0.00 42 1010.4
20260505163401 83 321 2.0 10.0 0.00 0.00 0.00 46 1010.5
20260505162401 82 96 4.0 11.0 0.00 0.00 0.00 45 1010.6
20260505161400 82 128 4.0 10.0 0.00 0.00 0.00 45 1010.7
20260505160401 81 123 5.0 14.0 0.00 0.00 0.00 47 1010.8
20260505152401 78 174 3.0 10.0 0.00 0.00 0.00 51 1011.0
20260505151401 77 194 1.0 5.0 0.00 0.00 0.00 53 1011.0
20260505150401 77 228 4.0 7.0 0.00 0.00 0.00 51 1010.9
20260505140402 72 142 3.0 8.0 0.00 0.00 0.00 57 1011.1
20260505124401 67 162 1.0 10.0 0.00 0.00 0.00 63 1011.3
20260505123402 66 180 4.0 12.0 0.00 0.00 0.00 64 1011.3
20260505122401 65 162 2.0 8.0 0.00 0.00 0.00 65 1011.2
20260505121402 65 188 3.0 7.0 0.00 0.00 0.00 65 1011.1
20260505120402 64 160 3.0 8.0 0.00 0.00 0.00 65 1011.1
20260505115401 64 140 2.0 10.0 0.00 0.00 0.00 66 1011.1
20260505114423 63 233 2.0 7.0 0.00 0.00 0.00 65 1011.0
20260505113422 63 227 2.0 11.0 0.00 0.00 0.00 66 1010.9
20260505112402 63 182 3.0 8.0 0.00 0.00 0.00 66 1010.8
20260505111402 63 176 3.0 9.0 0.00 0.00 0.00 67 1010.8
20260505101402 61 155 3.0 9.0 0.00 0.00 0.00 66 1010.3
20260505100402 61 137 4.0 11.0 0.00 0.00 0.00 66 1010.2
20260505095424 61 122 2.0 7.0 0.00 0.00 0.00 66 1010.1
20260505094402 61 163 2.0 8.0 0.00 0.00 0.00 66 1010.1
20260505093402 61 234 2.0 12.0 0.00 0.00 0.00 66 1010.0
20260505092424 61 194 3.0 6.0 0.00 0.00 0.00 65 1009.9
20260505091402 62 161 3.0 10.0 0.00 0.00 0.00 65 1009.9
20260505090403 62 184 2.0 8.0 0.00 0.00 0.00 65 1009.9
20260505085402 62 127 3.0 13.0 0.00 0.00 0.00 65 1009.9
20260505084402 62 160 4.0 10.0 0.00 0.00 0.00 66 1009.9
20260505083402 62 140 1.0 8.0 0.00 0.00 0.00 67 1009.9
20260505082403 62 124 2.0 11.0 0.00 0.00 0.00 67 1009.9
20260505081402 62 144 3.0 10.0 0.00 0.00 0.00 67 1009.9
20260505080403 61 149 4.0 10.0 0.00 0.00 0.00 68 1009.9
20260505074424 60 148 2.0 9.0 0.00 0.00 0.00 70 1009.9
20260505073402 60 123 2.0 10.0 0.00 0.00 0.00 71 1009.9
20260505072402 60 139 2.0 8.0 0.00 0.00 0.00 72 1009.9
20260505071403 59 123 3.0 9.0 0.00 0.00 0.00 72 1009.8
20260505070402 59 130 3.0 8.0 0.00 0.00 0.00 73 1009.8
20260505065403 59 128 3.0 8.0 0.00 0.00 0.00 72 1009.8
20260505064402 59 114 1.0 6.0 0.00 0.00 0.00 73 1009.8
20260505063403 59 103 2.0 8.0 0.00 0.00 0.00 73 1009.8
20260505062403 59 123 3.0 8.0 0.00 0.00 0.00 72 1009.8
20260505061403 59 123 1.0 4.0 0.00 0.00 0.00 72 1009.7
20260505060358 59 124 1.0 6.0 0.00 0.00 0.00 72 1009.7
20260505055359 60 127 1.0 5.0 0.00 0.00 0.00 71 1009.7
20260505054358 60 118 1.0 3.0 0.00 0.00 0.00 70 1009.8